Omaha, IA

10:16 AM CST on February 20, 2018 (GMT -0600)
Eppley Airfield

Weather History for KOMA - November, 2010

Change the Weather History Date:

Tuesday, November 9, 2010

  Actual Average Record
Temperature  
Mean Temperature 58 °F 42 °F  
Max Temperature 72 °F 53 °F 73 °F (1999)
Min Temperature 44 °F 32 °F 14 °F (1973)
Degree Days  
Heating Degree Days 7 23  
Month to date heating degree days 138 185  
Since 1 July heating degree days 435 670  
Cooling Degree Days 0 0  
Month to date cooling degree days 0 0  
Year to date cooling degree days 1388 1112  
Growing Degree Days 8 (Base 50)    
Moisture  
Dew Point 46 °F    
Average Humidity 64    
Maximum Humidity 86    
Minimum Humidity 41    
Precipitation  
Precipitation 0.00 in 0.05 in 1.36 in (1940)
Month to date precipitation T 0.54  
Year to date precipitation 32.07 28.48  
Snow  
Snow 0.00 in 0.00 in - ()
Month to date snowfall 0.0 0.3  
Since 1 July snowfall 0.0 0.6  
Snow Depth 0.00 in    
Sea Level Pressure  
Sea Level Pressure 29.69 in    
Wind  
Wind Speed 15 mph (SSE)    
Max Wind Speed 26 mph    
Max Gust Speed 36 mph    
Visibility 10 miles    
Events      
T = Trace of Precipitation, MM = Missing Value Source: NWS Daily Summary

Daily Weather History Graph

Daily Weather History Graph

Search for Another Location

Airport or City:

Trip Planner

Search our weather history database for the weather conditions in past years. The results will help you decide how hot, cold, wet, or windy it might be!

Date:

Astronomy

Nov. 09, 2010 Rise Set
Actual Time 7:04 AM CST 5:09 PM CST
Civil Twilight 6:35 AM CST 5:38 PM CST
Nautical Twilight 6:02 AM CST 6:11 PM CST
Astronomical Twilight 5:29 AM CST 6:44 PM CST
Moon 10:47 AM CST (11/9) 8:07 PM CST (11/9)
Length of Visible Light 11h 03m
Length of Day
10h 05m
Waxing Crescent, 15% of the Moon is Illuminated
Nov 9
Waxing Crescent
Nov 13
First Quarter
Nov 21
Full
Nov 28
Last Quarter
Dec 5
New

Hourly Weather History & Observations

Time (CST) Temp. Windchill Dew Point Humidity Pressure Visibility Wind Dir Wind Speed Gust Speed Precip Events Conditions
12:52 AM 50.0 °F - 41.0 °F 71% 29.73 in 10.0 mi SSE 8.1 mph - N/A   Clear
1:52 AM 48.0 °F - 41.0 °F 77% 29.72 in 10.0 mi SSE 6.9 mph - N/A   Clear
2:52 AM 52.0 °F - 42.1 °F 69% 29.71 in 10.0 mi SSE 12.7 mph - N/A   Clear
3:52 AM 45.0 °F 41.2 °F 39.9 °F 82% 29.71 in 10.0 mi SSE 6.9 mph - N/A   Clear
4:52 AM 48.0 °F - 41.0 °F 77% 29.72 in 10.0 mi SSE 8.1 mph - N/A   Clear
5:52 AM 46.9 °F - 42.1 °F 83% 29.71 in 10.0 mi SSE 5.8 mph - N/A   Clear
6:52 AM 48.0 °F - 43.0 °F 83% 29.71 in 10.0 mi SE 10.4 mph - N/A   Partly Cloudy
7:52 AM 50.0 °F - 46.0 °F 86% 29.73 in 10.0 mi SE 10.4 mph - N/A   Partly Cloudy
8:52 AM 55.0 °F - 46.9 °F 74% 29.73 in 10.0 mi SSE 12.7 mph - N/A   Mostly Cloudy
9:52 AM 59.0 °F - 48.0 °F 67% 29.71 in 10.0 mi SSE 16.1 mph - N/A   Scattered Clouds
10:52 AM 63.0 °F - 48.0 °F 58% 29.70 in 10.0 mi South 21.9 mph 28.8 mph N/A   Scattered Clouds
11:52 AM 66.0 °F - 48.0 °F 52% 29.68 in 10.0 mi SSE 23.0 mph - N/A   Mostly Cloudy
12:52 PM 66.9 °F - 46.9 °F 49% 29.66 in 10.0 mi South 21.9 mph 29.9 mph N/A   Mostly Cloudy
1:52 PM 70.0 °F - 46.9 °F 44% 29.63 in 10.0 mi SSE 23.0 mph 27.6 mph N/A   Mostly Cloudy
2:52 PM 71.1 °F - 46.9 °F 42% 29.62 in 10.0 mi SSE 19.6 mph - N/A   Mostly Cloudy
3:52 PM 72.0 °F - 46.9 °F 41% 29.62 in 10.0 mi SSE 23.0 mph 31.1 mph N/A   Mostly Cloudy
4:52 PM 70.0 °F - 46.0 °F 42% 29.63 in 10.0 mi South 19.6 mph - N/A   Mostly Cloudy
5:52 PM 66.0 °F - 46.0 °F 48% 29.65 in 10.0 mi SSE 11.5 mph - N/A   Mostly Cloudy
6:52 PM 66.0 °F - 46.0 °F 48% 29.67 in 10.0 mi South 16.1 mph - N/A   Mostly Cloudy
7:52 PM 64.9 °F - 46.9 °F 52% 29.68 in 10.0 mi South 20.7 mph - N/A   Mostly Cloudy
8:52 PM 64.0 °F - 46.9 °F 54% 29.70 in 10.0 mi South 17.3 mph - N/A   Scattered Clouds
9:52 PM 63.0 °F - 48.0 °F 58% 29.71 in 10.0 mi South 20.7 mph 28.8 mph N/A   Mostly Cloudy
10:52 PM 62.1 °F - 48.9 °F 62% 29.72 in 10.0 mi South 18.4 mph - N/A   Mostly Cloudy
11:52 PM 61.0 °F - 48.9 °F 64% 29.73 in 10.0 mi South 16.1 mph - N/A   Mostly Cloudy